Miscellaneous Local Product
Issued by NWS North Platte, NE

Home | Current Version | Previous Version | Text Only | Print | Product List | Glossary On
Versions: 1 2 3 4 5 6 7 8 9 10 11 12 13 14 15 16 17 18 19 20 21 22 23 24 25 26 27 28 29 30 31 32 33 34 35 36 37 38 39 40 41 42 43 44 45 46 47 48 49 50
000
AXUS43 KLBF 210210
MISLBF


WESTERN AND NORTH CENTRAL NEBRASKA HOURLY WEATHER ROUNDUP
NATIONAL WEATHER SERVICE NORTH PLATTE NE
900 PM CDT SAT SEP 20 2014

***STATIONS NOT REPORTING VARIABLES SUCH AS SKY/WEATHER OR
PRESSURE ARE PROVIDED BY THE NEBRASKA DEPARTMENT OF
ROADS...RAWS...AND APRS NETWORKS...AND ARE NOT UNDER
NATIONAL WEATHER SERVICE QUALITY CONTROL***

...OBSERVATIONS IN AND NEAR THE EASTERN PANHANDLE OF NEBRASKA...

CITY           SKY/WX    TMP DP  RH WIND       PRES   REMARKS
PINE RIDGE     CLEAR     57  42  57 E3        30.22R
CHADRON        CLEAR     61  41  47 E5        30.23R
ALLIANCE       CLEAR     60  41  49 NE9       30.23R
SIDNEY         CLEAR     68  44  42 NE10      30.23R
WHITECLAY        N/A     59  40  49 CALM        N/A
RUSHVILLE        N/A     59  32  36 NE8         N/A
CRESCENT LAKE    N/A     65  40  39 NE8         N/A
LISCO            N/A     72  40  31 E17         N/A
BIG SPRINGS      N/A     73  51  45 CALM        N/A
$$

...OBSERVATIONS IN NORTH CENTRAL NEBRASKA...

CITY           SKY/WX    TMP DP  RH WIND       PRES   REMARKS
VALENTINE      CLEAR     66  40  38 N8        30.15R
THEDFORD       CLEAR     69  44  41 N10       30.17R
AINSWORTH      CLEAR     61  44  53 NW7       30.15R
O`NEILL        CLEAR     64  46  50 NW8       30.09R
ORD            CLEAR     64  49  57 NW6       30.08R
BROKEN BOW     CLEAR     64  47  53 N10       30.11R
SPRINGVIEW       N/A     64  43  45 NW3         N/A
ROSE             N/A     68  49  51 W7          N/A
NEWPORT          N/A     66  43  43 NW7         N/A
COMSTOCK         N/A     76  50  38 NE8         N/A
$$

...OBSERVATIONS IN SOUTHWEST NEBRASKA AND FAR NORTHEAST COLORADO...

CITY           SKY/WX    TMP DP  RH WIND       PRES   REMARKS
WRAY           FAIR      67  50  54 CALM      30.17R
HOLYOKE        FAIR      68  48  49 NE7       30.19R
IMPERIAL       CLEAR     66  51  58 N8        30.15R
OGALLALA       CLEAR     69  50  50 NE9       30.17R
NORTH PLATTE   CLEAR     67  47  48 N9        30.13R
MCCOOK         CLEAR     69  52  54 N7        30.10R HAZE
LEXINGTON      CLEAR     67  52  58 N5        30.11R
PAXTON           N/A     76  51  40 CALM        N/A
SUTHERLAND       N/A     71  44  38 NE3         N/A
BRADY            N/A     68  49  49 CALM        N/A
GOTHENBURG       N/A     74  47  37 N6          N/A
CALLAWAY         N/A     71  50  46 N8          N/A
$$

...SOME WEATHER OBSERVATIONS FROM AROUND THE REGION...

CITY           SKY/WX    TMP DP  RH WIND       PRES   REMARKS
DENVER         MOCLDY    65  48  54 E7        30.28R
LARAMIE        CLEAR     61  42  49 E16       30.37R
CHEYENNE       MOCLDY    65  44  46 NE6       30.33R
SCOTTSBLUFF    CLEAR     65  41  41 NE8       30.22R
RAPID CITY     CLEAR     56  41  57 N8        30.22R
PIERRE         CLEAR     56  37  49 NW10      30.08R
WINNER         FAIR      64  38  38 NW9       30.11R
SIOUX FALLS    PTCLDY    65  44  46 N14       30.00R
OMAHA          PTCLDY    72  59  63 W5        29.95R
GRAND ISLAND   CLEAR     68  53  58 N8        30.06R
KANSAS CITY    CLEAR     71  69  93 W6        29.97R
WICHITA        MOCLDY    81  62  52 N5        30.01R THUNDER
HAYS           CLEAR     73  61  64 NE10      30.05R
LIBERAL        PTCLDY    79  57  47 S6        30.05R
GOODLAND       CLEAR     68  51  54 E5        30.17R
$$



USA.gov is the U.S. government's official web portal to all federal, state and local government web resources and services.